Hourly Weather Althornli

Today, 27 July, Tuesday

Time Temperature Precipitation Wind Pressure Humidity
00:00 +13°C° 0 mm 1 mps 689 mmHg 94%
01:00 +13°C° 0 mm 1 mps 689 mmHg 94%
02:00 +13°C° 0 mm 1 mps 689 mmHg 94%
03:00 +13°C° 0 mm 1 mps 688 mmHg 94%
04:00 +12°C° 0 mm 0 mps 688 mmHg 94%
05:00 +13°C° 0 mm 0 mps 688 mmHg 93%
06:00 +13°C° 0 mm 0 mps 688 mmHg 92%
07:00 +14°C° 0 mm 0 mps 688 mmHg 91%
08:00 +16°C° 0.1 mm 0 mps 688 mmHg 84%
09:00 +20°C° 0.1 mm 1 mps 689 mmHg 77%
10:00 +21°C° 0.1 mm 1 mps 689 mmHg 71%
11:00 +22°C° 0.2 mm 1 mps 688 mmHg 68%
12:00 +23°C° 0.2 mm 1 mps 688 mmHg 65%
13:00 +24°C° 0.2 mm 1 mps 688 mmHg 62%
14:00 +23°C° 0.6 mm 1 mps 688 mmHg 67%
15:00 +22°C° 0.6 mm 1 mps 688 mmHg 72%
16:00 +21°C° 0.6 mm 1 mps 688 mmHg 77%
17:00 +20°C° 0.7 mm 1 mps 688 mmHg 82%
18:00 +19°C° 0.7 mm 1 mps 688 mmHg 87%
19:00 +18°C° 0.7 mm 1 mps 687 mmHg 92%
20:00 +16°C° 0.2 mm 1 mps 688 mmHg 92%
21:00 +16°C° 0.2 mm 1 mps 688 mmHg 92%
22:00 +15°C° 0.2 mm 1 mps 688 mmHg 93%
23:00 +15°C° 0.1 mm 1 mps 688 mmHg 93%

Tomorrow, 28 July, Wednesday

Time Temperature Precipitation Wind Pressure Humidity
00:00 +15°C° 0.1 mm 1 mps 688 mmHg 93%
01:00 +15°C° 0.1 mm 1 mps 688 mmHg 93%
02:00 +15°C° 0.5 mm 1 mps 688 mmHg 94%
03:00 +15°C° 0.5 mm 1 mps 688 mmHg 95%
04:00 +15°C° 0.5 mm 1 mps 688 mmHg 96%
05:00 +15°C° 0.5 mm 1 mps 688 mmHg 96%
06:00 +15°C° 0.5 mm 1 mps 688 mmHg 96%
07:00 +15°C° 0.5 mm 1 mps 688 mmHg 96%
08:00 +15°C° 0.8 mm 1 mps 688 mmHg 95%
09:00 +15°C° 0.8 mm 1 mps 689 mmHg 94%
10:00 +15°C° 0.8 mm 1 mps 689 mmHg 93%
11:00 +18°C° 0.2 mm 1 mps 689 mmHg 83%
12:00 +20°C° 0.2 mm 1 mps 689 mmHg 73%
13:00 +21°C° 0.2 mm 1 mps 690 mmHg 64%
14:00 +22°C° 0.1 mm 1 mps 689 mmHg 65%
15:00 +22°C° 0.1 mm 1 mps 689 mmHg 66%
16:00 +21°C° 0.1 mm 2 mps 689 mmHg 67%
17:00 +21°C° 0.2 mm 1 mps 689 mmHg 74%
18:00 +20°C° 0.2 mm 1 mps 689 mmHg 81%
19:00 +19°C° 0.2 mm 1 mps 689 mmHg 88%
20:00 +18°C° 0 mm 1 mps 689 mmHg 90%
21:00 +16°C° 0 mm 1 mps 689 mmHg 92%
22:00 +15°C° 0 mm 1 mps 689 mmHg 93%
23:00 +14°C° 0 mm 1 mps 688 mmHg 94%

Day after tomorrow, 29 July, Thursday

Time Temperature Precipitation Wind Pressure Humidity
00:00 +14°C° 0 mm 1 mps 688 mmHg 94%
01:00 +14°C° 0 mm 1 mps 688 mmHg 94%
02:00 +14°C° 0 mm 1 mps 688 mmHg 93%
03:00 +13°C° 0 mm 1 mps 688 mmHg 93%
04:00 +13°C° 0 mm 1 mps 688 mmHg 93%
05:00 +14°C° 0 mm 1 mps 688 mmHg 91%
06:00 +14°C° 0 mm 0 mps 688 mmHg 88%
07:00 +15°C° 0 mm 0 mps 688 mmHg 86%
08:00 +19°C° 0 mm 1 mps 688 mmHg 79%
09:00 +21°C° 0 mm 1 mps 689 mmHg 72%
10:00 +23°C° 0 mm 1 mps 689 mmHg 64%
11:00 +24°C° 0 mm 1 mps 689 mmHg 63%
12:00 +24°C° 0 mm 2 mps 689 mmHg 62%
13:00 +25°C° 0 mm 2 mps 689 mmHg 60%
14:00 +25°C° 0.1 mm 2 mps 688 mmHg 61%
15:00 +25°C° 0.1 mm 2 mps 688 mmHg 62%
16:00 +25°C° 0.1 mm 2 mps 688 mmHg 63%
17:00 +23°C° 2 mm 2 mps 688 mmHg 74%
18:00 +21°C° 2 mm 1 mps 688 mmHg 85%
19:00 +17°C° 2 mm 0 mps 687 mmHg 96%
20:00 +19°C° 2.4 mm 1 mps 687 mmHg 97%
21:00 +18°C° 2.4 mm 1 mps 688 mmHg 98%
22:00 +16°C° 2.4 mm 1 mps 688 mmHg 99%
23:00 +16°C° 1 mm 1 mps 688 mmHg 98%

30 July, Friday

Time Temperature Precipitation Wind Pressure Humidity
00:00 +15°C° 1 mm 0 mps 687 mmHg 98%
01:00 +15°C° 1 mm 0 mps 687 mmHg 97%
02:00 +15°C° 0.5 mm 0 mps 687 mmHg 97%
03:00 +15°C° 0.5 mm 0 mps 687 mmHg 98%
04:00 +16°C° 0.5 mm 1 mps 687 mmHg 98%
05:00 +15°C° 0.5 mm 0 mps 687 mmHg 97%
06:00 +15°C° 0.5 mm 0 mps 687 mmHg 97%
07:00 +15°C° 0.5 mm 0 mps 687 mmHg 96%
08:00 +18°C° 0.2 mm 1 mps 687 mmHg 93%
09:00 +19°C° 0.2 mm 1 mps 687 mmHg 89%
10:00 +20°C° 0.2 mm 1 mps 688 mmHg 85%
11:00 +21°C° 0.4 mm 1 mps 687 mmHg 81%
12:00 +20°C° 0.4 mm 2 mps 687 mmHg 78%
13:00 +21°C° 0.4 mm 2 mps 687 mmHg 74%
14:00 +21°C° 0.4 mm 2 mps 687 mmHg 74%
15:00 +21°C° 0.4 mm 2 mps 687 mmHg 74%
16:00 +21°C° 0.4 mm 2 mps 687 mmHg 73%
17:00 +22°C° 0.3 mm 1 mps 687 mmHg 78%
18:00 +21°C° 0.3 mm 1 mps 687 mmHg 82%
19:00 +20°C° 0.3 mm 1 mps 687 mmHg 86%
20:00 +19°C° 0.1 mm 1 mps 687 mmHg 88%
21:00 +18°C° 0.1 mm 1 mps 686 mmHg 91%
22:00 +15°C° 0.1 mm 1 mps 686 mmHg 93%
23:00 +15°C° 0.1 mm 1 mps 686 mmHg 93%

31 July, Saturday

Time Temperature Precipitation Wind Pressure Humidity
00:00 +14°C° 0.1 mm 1 mps 686 mmHg 94%
01:00 +13°C° 0.1 mm 0 mps 686 mmHg 94%
02:00 +13°C° 0.1 mm 0 mps 686 mmHg 95%
03:00 +12°C° 0.1 mm 0 mps 685 mmHg 95%
04:00 +12°C° 0.1 mm 0 mps 685 mmHg 95%
05:00 +13°C° 0.1 mm 0 mps 685 mmHg 94%
06:00 +14°C° 0.1 mm 0 mps 686 mmHg 93%
07:00 +14°C° 0.1 mm 0 mps 686 mmHg 92%
08:00 +16°C° 0.2 mm 0 mps 686 mmHg 86%
09:00 +20°C° 0.2 mm 1 mps 686 mmHg 80%
10:00 +21°C° 0.2 mm 1 mps 686 mmHg 74%
11:00 +22°C° 0.2 mm 1 mps 686 mmHg 69%
12:00 +23°C° 0.2 mm 1 mps 686 mmHg 64%
13:00 +24°C° 0.2 mm 1 mps 686 mmHg 59%
14:00 +23°C° 0.8 mm 1 mps 685 mmHg 68%
15:00 +21°C° 0.8 mm 2 mps 685 mmHg 77%
16:00 +19°C° 0.8 mm 2 mps 684 mmHg 85%
17:00 +18°C° 5.5 mm 2 mps 684 mmHg 89%
18:00 +16°C° 5.5 mm 2 mps 685 mmHg 93%
19:00 +15°C° 5.5 mm 1 mps 685 mmHg 96%
20:00 +15°C° 3.9 mm 2 mps 685 mmHg 97%
21:00 +14°C° 3.9 mm 2 mps 685 mmHg 97%
22:00 +14°C° 3.9 mm 2 mps 685 mmHg 97%
23:00 +13°C° 3.2 mm 2 mps 685 mmHg 98%

1 August, Sunday

Time Temperature Precipitation Wind Pressure Humidity
00:00 +13°C° 3.2 mm 2 mps 685 mmHg 98%
01:00 +12°C° 3.2 mm 2 mps 685 mmHg 98%
02:00 +12°C° 2.8 mm 2 mps 685 mmHg 97%
03:00 +10°C° 2.8 mm 2 mps 685 mmHg 97%
04:00 +10°C° 2.8 mm 2 mps 685 mmHg 96%
05:00 +10°C° 0.8 mm 2 mps 685 mmHg 95%
06:00 +10°C° 0.8 mm 2 mps 685 mmHg 94%
07:00 +10°C° 0.8 mm 2 mps 685 mmHg 93%
08:00 +10°C° 0.6 mm 2 mps 685 mmHg 93%
09:00 +12°C° 0.6 mm 2 mps 685 mmHg 94%
10:00 +11°C° 0.6 mm 3 mps 686 mmHg 94%
11:00 +11°C° 0.9 mm 3 mps 686 mmHg 93%
12:00 +12°C° 0.9 mm 3 mps 686 mmHg 91%
13:00 +12°C° 0.9 mm 3 mps 686 mmHg 90%
14:00 +13°C° 0.6 mm 3 mps 686 mmHg 89%
15:00 +13°C° 0.6 mm 3 mps 687 mmHg 89%
16:00 +14°C° 0.6 mm 3 mps 687 mmHg 88%
17:00 +13°C° 0.7 mm 3 mps 687 mmHg 90%
18:00 +14°C° 0.7 mm 2 mps 687 mmHg 91%
19:00 +13°C° 0.7 mm 2 mps 687 mmHg 92%
20:00 +13°C° 0.3 mm 2 mps 687 mmHg 93%
21:00 +12°C° 0.3 mm 1 mps 688 mmHg 93%
22:00 +12°C° 0.3 mm 1 mps 688 mmHg 94%
23:00 +11°C° 0.1 mm 1 mps 688 mmHg 94%
Show more

We Need Your Consent

Meteoprog and our Service Providers may store and access personal data such as cookies, device identifiers or other similar technologies on your device and process such data to personalise content and ads, as well as provide social media features and to analyse the traffic.

  • Store and/or access information on your device

    Cookies, device identifiers or other information can be stored or accessed on your device for the purposes indicated above.

  • Personalised ads and content, ad and content measurement, audience insights, and products development

    Ads and content can be personalised based on a profile. More data can be added to better personalise ads and content. Ad and content performance can be measured. Insights about the audience who saw the ads and content can be derived. Such data can be used to develop or improve user’s experience, systems and software.

By clicking ‘I Agree’ you will allow the use of indicated cookies, device identifiers, web beacons or other similar technologies. Your settings can be changed in the browser on your device.

For certain purposes, legitimate interests may be relied on, rather than consent. You can read more about this in our Privacy and Cookie Policy.